Time,TemperatureF,DewpointF,PressureIn,WindDirection,WindDirectionDegrees,WindSpeedMPH,WindSpeedGustMPH,Humidity,HourlyPrecipIn,Conditions,Clouds,dailyrainin,SoftwareType,DateUTC
2013-09-12 00:10:00,67.4,43.0,29.83,ESE,121,0.0,0.0,42,0.00,,,0.00,weatherlink.com 1.10,2013-09-12 07:10:00,
2013-09-12 00:25:00,66.8,43.0,29.83,SE,124,0.0,0.0,42,0.00,,,0.00,weatherlink.com 1.10,2013-09-12 07:25:00,
2013-09-12 00:40:00,66.0,43.0,29.82,ESE,116,0.0,0.0,43,0.00,,,0.00,weatherlink.com 1.10,2013-09-12 07:40:00,
2013-09-12 00:55:00,66.4,44.0,29.82,ESE,117,0.0,0.0,44,0.00,,,0.00,weatherlink.com 1.10,2013-09-12 07:55:00,
2013-09-12 01:10:00,65.8,44.0,29.83,ESE,117,0.0,0.0,45,0.00,,,0.00,weatherlink.com 1.10,2013-09-12 08:10:00,
2013-09-12 01:25:00,65.3,43.0,29.83,ESE,117,0.0,0.0,45,0.00,,,0.00,weatherlink.com 1.10,2013-09-12 08:25:00,
2013-09-12 01:40:00,66.2,43.0,29.82,ESE,117,0.0,0.0,44,0.00,,,0.00,weatherlink.com 1.10,2013-09-12 08:40:00,
2013-09-12 01:55:00,65.5,43.0,29.82,East,99,0.0,0.0,45,0.00,,,0.00,weatherlink.com 1.10,2013-09-12 08:55:00,
2013-09-12 02:10:00,65.6,44.0,29.82,SE,129,0.0,0.0,46,0.00,,,0.00,weatherlink.com 1.10,2013-09-12 09:10:00,
2013-09-12 02:26:00,66.2,46.0,29.82,SSE,155,0.0,0.0,48,0.00,,,0.00,weatherlink.com 1.10,2013-09-12 09:26:00,
2013-09-12 02:40:00,66.5,46.0,29.82,ESE,121,0.0,0.0,48,0.00,,,0.00,weatherlink.com 1.10,2013-09-12 09:40:00,
2013-09-12 02:55:00,65.8,45.0,29.81,SE,124,0.0,0.0,48,0.00,,,0.00,weatherlink.com 1.10,2013-09-12 09:55:00,
2013-09-12 03:10:00,65.5,45.0,29.82,SE,134,0.0,0.0,48,0.00,,,0.00,weatherlink.com 1.10,2013-09-12 10:10:00,
2013-09-12 03:25:00,64.6,45.0,29.82,SE,124,0.0,0.0,49,0.00,,,0.00,weatherlink.com 1.10,2013-09-12 10:25:00,
2013-09-12 03:40:00,65.4,46.0,29.81,ESE,117,0.0,0.0,50,0.00,,,0.00,weatherlink.com 1.10,2013-09-12 10:40:00,
2013-09-12 03:55:00,65.0,46.0,29.81,ESE,117,0.0,0.0,50,0.00,,,0.00,weatherlink.com 1.10,2013-09-12 10:55:00,
2013-09-12 04:10:00,64.8,46.0,29.81,ESE,117,0.0,0.0,50,0.00,,,0.00,weatherlink.com 1.10,2013-09-12 11:10:00,
2013-09-12 04:25:00,64.7,46.0,29.81,ESE,117,0.0,0.0,51,0.00,,,0.00,weatherlink.com 1.10,2013-09-12 11:25:00,
2013-09-12 04:40:00,64.9,46.0,29.81,ESE,117,0.0,0.0,50,0.00,,,0.00,weatherlink.com 1.10,2013-09-12 11:40:00,
2013-09-12 04:55:00,64.8,46.0,29.81,ESE,120,0.0,0.0,51,0.00,,,0.00,weatherlink.com 1.10,2013-09-12 11:55:00,
2013-09-12 05:11:00,65.0,46.0,29.81,SE,127,0.0,0.0,50,0.00,,,0.00,weatherlink.com 1.10,2013-09-12 12:11:00,
2013-09-12 05:26:00,64.9,46.0,29.80,ESE,121,0.0,0.0,50,0.00,,,0.00,weatherlink.com 1.10,2013-09-12 12:26:00,
2013-09-12 05:41:00,64.8,46.0,29.81,SE,128,0.0,0.0,50,0.00,,,0.00,weatherlink.com 1.10,2013-09-12 12:41:00,
2013-09-12 05:56:00,64.7,45.0,29.80,SE,129,0.0,0.0,50,0.00,,,0.00,weatherlink.com 1.10,2013-09-12 12:56:00,
2013-09-12 06:11:00,63.8,45.0,29.80,SE,129,0.0,0.0,51,0.00,,,0.00,weatherlink.com 1.10,2013-09-12 13:11:00,
2013-09-12 06:26:00,63.5,45.0,29.81,SE,132,0.0,0.0,52,0.00,,,0.00,weatherlink.com 1.10,2013-09-12 13:26:00,
2013-09-12 06:41:00,63.4,45.0,29.81,SE,125,0.0,0.0,52,0.00,,,0.00,weatherlink.com 1.10,2013-09-12 13:41:00,
2013-09-12 06:56:00,63.3,45.0,29.81,SE,127,0.0,0.0,52,0.00,,,0.00,weatherlink.com 1.10,2013-09-12 13:56:00,
2013-09-12 07:11:00,63.3,45.0,29.81,SE,127,0.0,0.0,52,0.00,,,0.00,weatherlink.com 1.10,2013-09-12 14:11:00,
2013-09-12 07:26:00,63.3,46.0,29.81,SE,125,0.0,0.0,53,0.00,,,0.00,weatherlink.com 1.10,2013-09-12 14:26:00,
2013-09-12 07:41:00,62.9,45.0,29.82,SE,125,0.0,0.0,53,0.00,,,0.00,weatherlink.com 1.10,2013-09-12 14:41:00,
2013-09-12 07:56:00,63.6,46.0,29.82,SE,125,0.0,0.0,54,0.00,,,0.00,weatherlink.com 1.10,2013-09-12 14:56:00,
2013-09-12 08:11:00,64.5,47.0,29.82,SE,125,0.0,0.0,53,0.00,,,0.00,weatherlink.com 1.10,2013-09-12 15:11:00,
2013-09-12 08:26:00,64.8,47.0,29.82,SE,126,0.0,0.0,52,0.00,,,0.00,weatherlink.com 1.10,2013-09-12 15:26:00,
2013-09-12 08:41:00,65.9,47.0,29.81,SE,125,0.0,0.0,50,0.00,,,0.00,weatherlink.com 1.10,2013-09-12 15:41:00,
2013-09-12 08:56:00,67.8,47.0,29.81,SE,125,0.0,0.0,48,0.00,,,0.00,weatherlink.com 1.10,2013-09-12 15:56:00,
2013-09-12 09:11:00,69.2,47.0,29.81,West,270,0.0,0.0,46,0.00,,,0.00,weatherlink.com 1.10,2013-09-12 16:11:00,
2013-09-12 09:26:00,70.6,48.0,29.81,WNW,295,0.0,0.0,44,0.00,,,0.00,weatherlink.com 1.10,2013-09-12 16:26:00,
2013-09-12 09:41:00,71.5,47.0,29.81,NW,325,0.0,0.0,42,0.00,,,0.00,weatherlink.com 1.10,2013-09-12 16:41:00,
2013-09-12 09:56:00,72.5,47.0,29.82,WSW,256,0.0,1.0,41,0.00,,,0.00,weatherlink.com 1.10,2013-09-12 16:56:00,
2013-09-12 10:11:00,73.4,48.0,29.81,WNW,301,0.0,0.0,40,0.00,,,0.00,weatherlink.com 1.10,2013-09-12 17:11:00,
2013-09-12 10:26:00,73.9,48.0,29.81,North,6,0.0,3.0,40,0.00,,,0.00,weatherlink.com 1.10,2013-09-12 17:26:00,
2013-09-12 10:41:00,74.8,48.0,29.80,WSW,255,0.0,3.0,39,0.00,,,0.00,weatherlink.com 1.10,2013-09-12 17:41:00,
2013-09-12 10:56:00,75.7,49.0,29.80,WSW,253,0.0,4.0,39,0.00,,,0.00,weatherlink.com 1.10,2013-09-12 17:56:00,
2013-09-12 11:11:00,76.4,49.0,29.80,NW,320,0.0,3.0,38,0.00,,,0.00,weatherlink.com 1.10,2013-09-12 18:11:00,
2013-09-12 11:26:00,77.5,48.0,29.79,WNW,287,4.0,5.0,36,0.00,,,0.00,weatherlink.com 1.10,2013-09-12 18:26:00,
2013-09-12 11:41:00,78.0,50.0,29.79,WNW,291,5.0,6.0,37,0.00,,,0.00,weatherlink.com 1.10,2013-09-12 18:41:00,
2013-09-12 11:56:00,78.7,50.0,29.78,West,280,0.0,7.0,36,0.00,,,0.00,weatherlink.com 1.10,2013-09-12 18:56:00,
2013-09-12 12:11:00,79.6,50.0,29.78,WNW,296,0.0,6.0,35,0.00,,,0.00,weatherlink.com 1.10,2013-09-12 19:11:00,
2013-09-12 12:26:00,79.8,50.0,29.77,West,280,3.0,8.0,35,0.00,,,0.00,weatherlink.com 1.10,2013-09-12 19:26:00,
2013-09-12 12:42:00,80.9,50.0,29.77,NW,305,0.0,10.0,34,0.00,,,0.00,weatherlink.com 1.10,2013-09-12 19:42:00,
2013-09-12 12:57:00,81.4,50.0,29.77,WNW,287,1.0,6.0,34,0.00,,,0.00,weatherlink.com 1.10,2013-09-12 19:57:00,
2013-09-12 13:12:00,81.7,50.0,29.76,NNW,340,0.0,6.0,33,0.00,,,0.00,weatherlink.com 1.10,2013-09-12 20:12:00,
2013-09-12 13:27:00,82.8,49.0,29.76,NW,326,0.0,8.0,31,0.00,,,0.00,weatherlink.com 1.10,2013-09-12 20:27:00,
2013-09-12 13:42:00,84.8,49.0,29.75,NNW,338,3.0,7.0,29,0.00,,,0.00,weatherlink.com 1.10,2013-09-12 20:42:00,
2013-09-12 13:57:00,84.7,49.0,29.75,West,281,2.0,16.0,29,0.00,,,0.00,weatherlink.com 1.10,2013-09-12 20:57:00,
2013-09-12 14:12:00,85.4,49.0,29.74,NW,311,4.0,12.0,28,0.00,,,0.00,weatherlink.com 1.10,2013-09-12 21:12:00,
2013-09-12 14:27:00,86.2,47.0,29.73,NW,324,0.0,9.0,26,0.00,,,0.00,weatherlink.com 1.10,2013-09-12 21:27:00,
2013-09-12 14:42:00,86.6,47.0,29.73,NW,311,7.0,17.0,25,0.00,,,0.00,weatherlink.com 1.10,2013-09-12 21:42:00,
2013-09-12 14:57:00,86.5,47.0,29.73,NNW,330,3.0,14.0,25,0.00,,,0.00,weatherlink.com 1.10,2013-09-12 21:57:00,
2013-09-12 15:12:00,87.5,45.0,29.72,North,11,3.0,12.0,23,0.00,,,0.00,weatherlink.com 1.10,2013-09-12 22:12:00,
2013-09-12 15:27:00,87.2,46.0,29.72,WNW,300,3.0,9.0,24,0.00,,,0.00,weatherlink.com 1.10,2013-09-12 22:27:00,
2013-09-12 15:42:00,87.1,45.0,29.71,WNW,300,3.0,10.0,23,0.00,,,0.00,weatherlink.com 1.10,2013-09-12 22:42:00,
2013-09-12 15:57:00,87.3,46.0,29.71,WNW,302,0.0,8.0,24,0.00,,,0.00,weatherlink.com 1.10,2013-09-12 22:57:00,
2013-09-12 16:12:00,87.2,44.0,29.71,NNE,13,7.0,8.0,22,0.00,,,0.00,weatherlink.com 1.10,2013-09-12 23:12:00,
2013-09-12 16:27:00,87.7,43.0,29.71,NW,323,2.0,7.0,21,0.00,,,0.00,weatherlink.com 1.10,2013-09-12 23:27:00,
2013-09-12 16:42:00,87.5,45.0,29.71,WNW,303,1.0,9.0,23,0.00,,,0.00,weatherlink.com 1.10,2013-09-12 23:42:00,
2013-09-12 16:57:00,86.8,45.0,29.71,NW,304,2.0,7.0,23,0.00,,,0.00,weatherlink.com 1.10,2013-09-12 23:57:00,
2013-09-12 17:12:00,87.0,44.0,29.71,NNW,333,2.0,9.0,22,0.00,,,0.00,weatherlink.com 1.10,2013-09-13 00:12:00,
2013-09-12 17:27:00,87.4,44.0,29.70,NNW,347,2.0,8.0,22,0.00,,,0.00,weatherlink.com 1.10,2013-09-13 00:27:00,
2013-09-12 17:42:00,86.9,45.0,29.70,NW,318,1.0,9.0,23,0.00,,,0.00,weatherlink.com 1.10,2013-09-13 00:42:00,
2013-09-12 17:57:00,85.9,44.0,29.70,NW,316,1.0,8.0,23,0.00,,,0.00,weatherlink.com 1.10,2013-09-13 00:57:00,
2013-09-12 18:12:00,85.6,44.0,29.71,NNW,328,0.0,7.0,23,0.00,,,0.00,weatherlink.com 1.10,2013-09-13 01:12:00,
2013-09-12 18:27:00,85.7,43.0,29.71,WNW,286,0.0,9.0,22,0.00,,,0.00,weatherlink.com 1.10,2013-09-13 01:27:00,
2013-09-12 18:42:00,85.3,44.0,29.71,North,4,0.0,7.0,23,0.00,,,0.00,weatherlink.com 1.10,2013-09-13 01:42:00,
2013-09-12 18:57:00,83.7,44.0,29.71,NW,307,1.0,10.0,25,0.00,,,0.00,weatherlink.com 1.10,2013-09-13 01:57:00,
2013-09-12 19:12:00,82.1,45.0,29.71,NW,322,0.0,6.0,27,0.00,,,0.00,weatherlink.com 1.10,2013-09-13 02:12:00,
2013-09-12 19:27:00,79.9,44.0,29.71,NNW,334,0.0,2.0,28,0.00,,,0.00,weatherlink.com 1.10,2013-09-13 02:27:00,
2013-09-12 19:42:00,78.4,44.0,29.71,North,349,0.0,1.0,30,0.00,,,0.00,weatherlink.com 1.10,2013-09-13 02:42:00,
2013-09-12 19:57:00,77.2,44.0,29.72,NW,316,0.0,3.0,31,0.00,,,0.00,weatherlink.com 1.10,2013-09-13 02:57:00,
2013-09-12 20:12:00,76.4,44.0,29.72,ESE,112,0.0,0.0,31,0.00,,,0.00,weatherlink.com 1.10,2013-09-13 03:12:00,
2013-09-12 20:27:00,75.6,44.0,29.73,ENE,78,0.0,3.0,33,0.00,,,0.00,weatherlink.com 1.10,2013-09-13 03:27:00,
2013-09-12 20:42:00,75.0,44.0,29.73,North,349,0.0,0.0,33,0.00,,,0.00,weatherlink.com 1.10,2013-09-13 03:42:00,
2013-09-12 20:57:00,74.6,44.0,29.73,East,99,0.0,0.0,34,0.00,,,0.00,weatherlink.com 1.10,2013-09-13 03:57:00,
2013-09-12 21:12:00,73.2,44.0,29.74,NW,304,1.0,2.0,35,0.00,,,0.00,weatherlink.com 1.10,2013-09-13 04:12:00,
2013-09-12 21:27:00,71.8,44.0,29.74,SE,140,0.0,0.0,37,0.00,,,0.00,weatherlink.com 1.10,2013-09-13 04:27:00,
2013-09-12 21:42:00,71.6,44.0,29.74,ESE,117,0.0,1.0,37,0.00,,,0.00,weatherlink.com 1.10,2013-09-13 04:42:00,
2013-09-12 21:57:00,71.7,44.0,29.75,SE,137,0.0,0.0,37,0.00,,,0.00,weatherlink.com 1.10,2013-09-13 04:57:00,
2013-09-12 22:12:00,71.3,44.0,29.75,SE,143,0.0,1.0,38,0.00,,,0.00,weatherlink.com 1.10,2013-09-13 05:12:00,
2013-09-12 22:27:00,71.1,44.0,29.75,SE,137,0.0,0.0,38,0.00,,,0.00,weatherlink.com 1.10,2013-09-13 05:27:00,
2013-09-12 22:42:00,70.6,44.0,29.75,SE,145,0.0,0.0,39,0.00,,,0.00,weatherlink.com 1.10,2013-09-13 05:42:00,
2013-09-12 22:58:00,70.3,44.0,29.75,ESE,121,0.0,0.0,39,0.00,,,0.00,weatherlink.com 1.10,2013-09-13 05:58:00,
2013-09-12 23:12:00,69.9,44.0,29.75,ESE,123,0.0,0.0,39,0.00,,,0.00,weatherlink.com 1.10,2013-09-13 06:12:00,
2013-09-12 23:28:00,69.4,44.0,29.74,SSE,148,0.0,0.0,40,0.00,,,0.00,weatherlink.com 1.10,2013-09-13 06:28:00,
2013-09-12 23:43:00,68.8,44.0,29.74,SE,145,0.0,0.0,41,0.00,,,0.00,weatherlink.com 1.10,2013-09-13 06:43:00,
2013-09-12 23:58:00,68.4,44.0,29.74,SE,145,0.0,0.0,42,0.00,,,0.00,weatherlink.com 1.10,2013-09-13 06:58:00,